1496628001.08,37216,18.13,73804.5,4.29,3.59,3.59,0,*73
1496628002.25,37217,18.13,73800.0,4.29,3.63,3.63,0,*72
1496628003.49,37218,18.13,73806.3,4.31,3.67,3.63,0,*70
1496628004.71,37219,18.13,73802.8,4.31,3.63,3.67,0,*71
1496628005.97,37220,18.13,73808.8,4.31,3.67,3.67,0,*7F
1496628007.15,37221,18.13,73806.0,4.29,3.63,3.63,0,*77
1496628008.41,37222,18.13,73804.0,4.31,3.67,3.67,0,*7D
1496628009.61,37223,18.13,73804.8,4.31,3.63,3.63,0,*7C
1496628010.82,37224,18.13,73806.8,4.31,3.63,3.59,0,*72
1496628012.02,37225,18.13,73810.3,4.31,3.59,3.59,0,*7A
1496628013.19,37226,18.13,73806.5,4.29,3.55,3.55,0,*70
1496628014.39,37227,18.13,73804.5,4.29,3.55,3.49,0,*7C
1496628015.62,37228,18.13,73806.8,4.29,3.49,3.49,0,*7E
1496628016.79,37229,18.13,73806.5,4.29,3.55,3.55,0,*7F
1496628017.97,37230,18.13,73806.3,4.29,3.55,3.55,0,*77
1496628019.14,37231,18.13,73806.8,4.29,3.55,3.55,0,*76
1496628020.31,37232,18.13,73804.5,4.29,3.55,3.55,0,*75
1496628021.48,37233,18.13,73804.0,4.29,3.55,3.55,0,*74
1496628022.69,37234,18.13,73810.3,4.29,3.55,3.49,0,*7E
1496628023.9,37235,18.13,73806.0,4.27,3.45,3.53,0,*7B
1496628025.13,37236,18.13,73804.3,4.29,3.49,3.45,0,*7D
1496628026.37,37237,18.13,73806.5,4.29,3.45,3.45,0,*70
1496628027.6,37238,18.13,73806.0,4.29,3.45,3.45,0,*7F
1496628028.83,37239,18.13,73808.3,4.29,3.45,3.49,0,*72
1496628030.06,37240,18.13,73806.3,4.29,3.49,3.45,0,*7C
1496628031.29,37241,18.13,73808.3,4.29,3.49,3.45,0,*7D
1496628032.49,37242,18.13,73806.5,4.29,3.49,3.55,0,*7F
1496628033.72,37243,18.13,73804.3,4.29,3.45,3.49,0,*7F
1496628034.92,37244,18.13,73800.8,4.27,3.41,3.29,0,*74
1496628036.15,37245,18.13,73804.5,4.27,3.45,3.45,0,*7B
1496628037.38,37246,18.13,73804.5,4.29,3.45,3.45,0,*76
1496628038.61,37247,18.13,73806.8,4.27,3.41,3.41,0,*79
1496628039.84,37248,18.13,73806.8,4.27,3.41,3.41,0,*76
1496628041.07,37249,18.13,73806.3,4.27,3.45,3.41,0,*73
1496628042.3,37250,18.13,73804.0,4.27,3.41,3.33,0,*7A
1496628043.52,37251,18.13,73802.0,4.27,3.33,3.33,0,*7E
1496628044.74,37252,18.13,73804.3,4.27,3.45,3.37,0,*78
1496628045.97,37253,18.13,73806.5,4.27,3.41,3.33,0,*79
1496628047.19,37254,18.13,73802.8,4.27,3.53,3.45,0,*7C
1496628048.44,37255,18.13,73802.8,4.25,3.53,3.45,0,*7F
1496628049.69,37256,18.13,73802.0,4.25,3.45,3.41,0,*7F
1496628050.94,37257,18.13,73798.8,4.25,3.45,3.45,0,*7A
1496628052.17,37258,18.13,73802.3,4.27,3.45,3.45,0,*77
1496628053.39,37259,18.13,73802.8,4.27,3.45,3.53,0,*71
1496628054.6,37260,18.13,73802.5,4.27,3.53,3.53,0,*7C
1496628055.81,37261,18.13,73802.8,4.27,3.53,3.53,0,*7D
1496628057.03,37262,18.13,73802.8,4.27,3.53,3.53,0,*7E
1496628058.27,37263,18.13,73804.0,4.25,3.45,3.53,0,*7A
1496628059.48,37264,18.13,73804.8,4.27,3.53,3.53,0,*78
1496628060.71,37265,18.13,73806.0,4.27,3.45,3.45,0,*79
1496628061.92,37266,18.13,73802.8,4.27,3.53,3.53,0,*7A
1496628063.15,37267,18.13,73804.5,4.27,3.45,3.45,0,*7B
1496628064.37,37268,18.13,73804.3,4.27,3.45,3.45,0,*74
1496628065.6,37269,18.13,73800.0,4.27,3.41,3.33,0,*70
1496628066.82,37270,18.13,73808.3,4.27,3.33,3.33,0,*7D
1496628068.05,37271,18.13,73806.3,4.27,3.41,3.41,0,*7C
1496628069.27,37272,18.13,73800.8,4.27,3.33,3.33,0,*7F
1496628070.53,37273,18.13,73806.5,4.25,3.41,3.33,0,*79
1496628071.73,37274,18.13,73806.0,4.23,3.29,3.37,0,*72
1496628072.98,37275,18.13,73806.3,4.25,3.45,3.45,0,*7A
1496628074.21,37276,18.13,73804.8,4.23,3.37,3.41,0,*7E
1496628075.46,37277,18.13,73804.0,4.25,3.33,3.41,0,*7D
1496628076.71,37278,18.13,73806.0,4.25,3.33,3.33,0,*77
1496628077.96,37279,18.13,73806.5,4.25,3.33,3.41,0,*73
1496628079.19,37280,18.13,73808.0,4.23,3.53,3.49,0,*7D
1496628080.41,37281,18.13,73804.8,4.23,3.49,3.49,0,*77
1496628081.63,37282,18.13,73804.3,4.23,3.49,3.49,0,*74
1496628082.87,37283,18.13,73804.3,4.25,3.53,3.53,0,*73
1496628084.11,37284,18.13,73802.0,4.25,3.53,3.53,0,*74
1496628085.35,37285,18.13,73806.5,4.23,3.41,3.41,0,*73
1496628086.59,37286,18.13,73808.8,4.25,3.53,3.53,0,*76
1496628087.81,37287,18.13,73810.0,4.23,3.49,3.49,0,*71
1496628089.04,37288,18.13,73808.0,4.23,3.49,3.41,0,*76
1496628090.28,37289,18.13,73806.8,4.25,3.45,3.53,0,*7E
1496628091.5,37290,18.13,73806.5,4.23,3.53,3.53,0,*77
1496628092.74,37291,18.13,73806.3,4.25,3.53,3.53,0,*70
1496628093.99,37292,18.13,73808.5,4.25,3.45,3.53,0,*74
1496628095.23,37293,18.13,73804.8,4.25,3.53,3.53,0,*72
1496628096.47,37294,18.13,73804.8,4.25,3.53,3.53,0,*75
1496628097.68,37295,18.13,73806.3,4.25,3.55,3.53,0,*72
1496628098.9,37296,18.13,73806.8,4.23,3.53,3.49,0,*7A
1496628100.12,37297,18.13,73808.3,4.25,3.55,3.53,0,*70
1496628101.31,37298,18.13,73806.0,4.23,3.53,3.55,0,*79
1496628102.51,37299,18.13,73808.0,4.25,3.59,3.59,0,*78
1496628103.7,37300,18.13,73808.0,4.25,3.59,3.59,0,*79
1496628104.89,37301,18.13,73808.8,4.23,3.55,3.53,0,*78
1496628106.08,37302,18.13,73804.8,4.25,3.55,3.55,0,*7B
1496628107.27,37303,18.13,73806.3,4.25,3.55,3.55,0,*7A
1496628108.46,37304,18.13,73808.3,4.23,3.55,3.53,0,*7D
1496628109.65,37305,18.13,73806.3,4.25,3.55,3.55,0,*7C
1496628110.85,37306,18.13,73806.5,4.23,3.53,3.55,0,*7F
1496628112.04,37307,18.13,73804.3,4.25,3.55,3.55,0,*7E
1496628113.23,37308,18.13,73806.8,4.25,3.55,3.55,0,*71
1496628114.42,37309,18.13,73806.3,4.25,3.55,3.55,0,*70
1496628115.61,37310,18.13,73806.5,4.25,3.55,3.55,0,*78
1496628116.82,37311,18.13,73806.3,4.23,3.53,3.53,0,*7F
1496628118.02,37312,18.13,73806.5,4.25,3.55,3.59,0,*76
1496628119.23,37313,18.13,73806.0,4.23,3.53,3.53,0,*7D
1496628120.42,37314,18.13,73804.3,4.25,3.55,3.55,0,*7C
1496628121.59,37315,18.13,73802.5,4.23,3.55,3.55,0,*7B
1496628122.76,37316,18.13,73804.3,4.23,3.55,3.55,0,*78
1496628123.92,37317,18.13,73802.8,4.23,3.55,3.55,0,*79
1496628125.12,37318,18.13,73806.5,4.25,3.59,3.59,0,*70
1496628126.31,37319,18.13,73806.0,4.25,3.55,3.59,0,*7D
1496628127.51,37320,18.13,73806.5,4.25,3.59,3.59,0,*7B
1496628128.7,37321,18.13,73806.0,4.25,3.59,3.59,0,*7A
1496628129.89,37322,18.13,73804.3,4.25,3.55,3.55,0,*79
1496628131.11,37323,18.13,73808.8,4.25,3.59,3.67,0,*75
1496628132.31,37324,18.13,73806.5,4.25,3.59,3.59,0,*7F
1496628133.47,37325,18.13,73804.0,4.23,3.55,3.59,0,*74
1496628134.66,37326,18.13,73804.3,4.25,3.55,3.55,0,*7D
1496628135.88,37327,18.13,73804.0,4.25,3.55,3.53,0,*7A
1496628137.07,37328,18.13,73808.3,4.25,3.55,3.55,0,*73
1496628138.29,37329,18.13,73806.8,4.25,3.53,3.55,0,*74
1496628139.53,37330,18.13,73804.8,4.25,3.53,3.53,0,*7A
1496628140.77,37331,18.13,73806.8,4.25,3.45,3.53,0,*7C
1496628142.01,37332,18.13,73806.8,4.25,3.53,3.53,0,*78
1496628143.25,37333,18.13,73806.8,4.25,3.53,3.53,0,*79
1496628144.5,37334,18.13,73808.5,4.25,3.45,3.45,0,*7E
1496628145.75,37335,18.13,73808.5,4.25,3.53,3.45,0,*78
1496628147.0,37336,18.13,73806.5,4.25,3.45,3.45,0,*7C
1496628148.25,37337,18.13,73806.8,4.25,3.45,3.53,0,*7A
1496628149.49,37338,18.13,73806.3,4.25,3.53,3.45,0,*75
1496628150.73,37339,18.13,73804.3,4.25,3.53,3.53,0,*73
1496628151.96,37340,18.13,73804.0,4.23,3.49,3.41,0,*73
1496628153.18,37341,18.13,73800.3,4.23,3.49,3.49,0,*7A
1496628154.42,37342,18.13,73804.3,4.25,3.53,3.53,0,*7F
1496628155.66,37343,18.13,73806.5,4.25,3.53,3.53,0,*7E
1496628156.9,37344,18.13,73802.5,4.25,3.53,3.53,0,*79
1496628158.14,37345,18.13,73802.5,4.25,3.53,3.53,0,*78
1496628159.39,37346,18.13,73804.3,4.25,3.53,3.53,0,*7B
1496628160.63,37347,18.13,73806.3,4.25,3.53,3.53,0,*7A
1496628161.85,37348,18.13,73804.0,4.23,3.49,3.49,0,*73
1496628163.07,37349,18.13,73806.3,4.23,3.49,3.49,0,*72
1496628164.31,37350,18.13,73804.8,4.25,3.53,3.53,0,*7C
1496628165.54,37351,18.13,73806.5,4.23,3.49,3.49,0,*7B
1496628166.76,37352,18.13,73802.8,4.23,3.45,3.45,0,*78
1496628167.99,37353,18.13,73804.3,4.23,3.37,3.41,0,*78
1496628169.22,37354,18.13,73806.8,4.23,3.49,3.49,0,*7E
1496628170.46,37355,18.13,73806.5,4.25,3.53,3.53,0,*79
1496628171.67,37356,18.13,73804.8,4.25,3.53,3.55,0,*7C
1496628172.89,37357,18.13,73808.8,4.23,3.49,3.53,0,*76
1496628174.06,37358,18.13,73804.5,4.23,3.55,3.55,0,*72
1496628175.23,37359,18.13,73808.0,4.23,3.55,3.55,0,*73
1496628176.42,37360,18.13,73808.5,4.25,3.59,3.59,0,*7F
1496628177.61,37361,18.13,73808.8,4.25,3.55,3.55,0,*7E
1496628178.83,37362,18.13,73804.3,4.23,3.53,3.53,0,*7B
1496628180.02,37363,18.13,73806.8,4.25,3.55,3.59,0,*70
1496628181.21,37364,18.13,73804.5,4.25,3.59,3.59,0,*7B
1496628182.44,37365,18.13,73806.8,4.25,3.67,3.55,0,*7B
1496628183.63,37366,18.13,73804.8,4.25,3.55,3.55,0,*79
1496628184.82,37367,18.13,73806.5,4.25,3.55,3.55,0,*78
1496628186.01,37368,18.13,73804.5,4.25,3.55,3.55,0,*77
1496628187.2,37369,18.13,73804.0,4.25,3.55,3.55,0,*76
1496628188.4,37370,18.13,73802.3,4.25,3.59,3.59,0,*7E
1496628189.59,37371,18.13,73802.5,4.23,3.53,3.55,0,*7F
1496628190.79,37372,18.13,73804.8,4.23,3.67,3.59,0,*77
1496628192.0,37373,18.13,73800.8,4.23,3.67,3.63,0,*7F
1496628193.17,37374,18.13,73804.3,4.23,3.63,3.63,0,*7C
1496628194.41,37375,18.13,73806.0,4.25,3.71,3.67,0,*7C
1496628195.61,37376,18.13,73804.8,4.23,3.63,3.67,0,*7A
1496628196.86,37377,18.13,73804.5,4.25,3.71,3.67,0,*7E
1496628198.11,37378,18.13,73802.8,4.25,3.71,3.71,0,*76
1496628199.36,37379,18.13,73802.3,4.25,3.67,3.67,0,*77
1496628200.62,37380,18.13,73804.0,4.25,3.71,3.71,0,*71
1496628201.86,37381,18.13,73804.3,4.25,3.71,3.67,0,*77
1496628203.11,37382,18.13,73804.3,4.25,3.71,3.67,0,*74
1496628204.36,37383,18.13,73804.8,4.25,3.71,3.71,0,*72
1496628205.61,37384,18.13,73806.0,4.25,3.71,3.67,0,*72
1496628206.87,37385,18.13,73804.3,4.25,3.71,3.71,0,*74
1496628208.09,37386,18.13,73804.8,4.27,3.71,3.79,0,*7D
1496628209.31,37387,18.13,73806.3,4.27,3.79,3.71,0,*7C
1496628210.55,37388,18.13,73804.5,4.29,3.71,3.75,0,*71
1496628211.77,37389,18.13,73806.5,4.27,3.67,3.71,0,*7D
1496628212.97,37390,18.13,73804.8,4.27,3.59,3.67,0,*7F
1496628214.13,37391,18.13,73800.8,4.27,3.55,3.55,0,*73
1496628215.32,37392,18.13,73804.0,4.25,3.55,3.55,0,*72
1496628216.52,37393,18.13,73804.8,4.27,3.59,3.67,0,*7C
1496628217.74,37394,18.13,73804.8,4.27,3.71,3.67,0,*71
1496628218.96,37395,18.13,73806.3,4.27,3.71,3.71,0,*77
1496628220.19,37396,18.13,73806.0,4.27,3.71,3.67,0,*73
1496628221.42,37397,18.13,73806.0,4.29,3.71,3.75,0,*7F
1496628222.65,37398,18.13,73806.0,4.27,3.67,3.71,0,*7D
1496628223.88,37399,18.13,73804.5,4.29,3.71,3.75,0,*71
1496628225.11,37400,18.13,73806.0,4.27,3.71,3.71,0,*7C
1496628226.34,37401,18.13,73808.5,4.29,3.71,3.75,0,*77
1496628227.58,37402,18.13,73808.3,4.29,3.75,3.75,0,*70
1496628228.75,37403,18.13,73810.0,4.29,3.63,3.63,0,*71
1496628229.93,37404,18.13,73806.0,4.29,3.59,3.59,0,*76
1496628231.11,37405,18.13,73804.0,4.29,3.59,3.59,0,*77
1496628232.31,37406,18.13,73806.0,4.29,3.49,3.59,0,*75
1496628233.5,37407,18.13,73804.0,4.27,3.45,3.55,0,*7A
1496628234.69,37408,18.13,73808.3,4.27,3.53,3.55,0,*72
1496628235.86,37409,18.13,73806.5,4.27,3.55,3.59,0,*79
1496628237.02,37410,18.13,73802.0,4.27,3.59,3.59,0,*7D
1496628238.23,37411,18.13,73806.8,4.29,3.71,3.63,0,*71
1496628239.4,37412,18.13,73808.3,4.27,3.59,3.55,0,*73
1496628240.56,37413,18.13,73806.8,4.27,3.55,3.59,0,*72
1496628241.72,37414,18.13,73806.5,4.27,3.55,3.55,0,*79
1496628242.89,37415,18.13,73806.5,4.27,3.59,3.63,0,*71
1496628244.09,37416,18.13,73804.8,4.29,3.59,3.67,0,*78
1496628245.27,37417,18.13,73806.5,4.29,3.63,3.63,0,*74
1496628246.5,37418,18.13,73808.5,4.29,3.71,3.71,0,*7B
1496628247.73,37419,18.13,73808.5,4.27,3.67,3.71,0,*73
1496628248.96,37420,18.13,73808.0,4.27,3.67,3.67,0,*7E
1496628250.19,37421,18.13,73808.5,4.29,3.75,3.71,0,*75
1496628251.42,37422,18.13,73806.5,4.27,3.67,3.71,0,*7B
1496628252.65,37423,18.13,73808.5,4.29,3.71,3.71,0,*73
1496628253.88,37424,18.13,73804.5,4.27,3.67,3.67,0,*7A
1496628255.08,37425,18.13,73806.0,4.27,3.71,3.63,0,*78
1496628256.28,37426,18.13,73806.5,4.27,3.67,3.59,0,*75
1496628257.48,37427,18.13,73806.3,4.29,3.71,3.63,0,*74
1496628258.71,37428,18.13,73808.5,4.29,3.71,3.75,0,*7C
1496628259.95,37429,18.13,73808.0,4.29,3.71,3.71,0,*79
1496628261.18,37430,18.13,73806.8,4.29,3.71,3.75,0,*75
1496628262.42,37431,18.13,73808.8,4.29,3.71,3.75,0,*74
1496628263.65,37432,18.13,73810.0,4.29,3.75,3.75,0,*73
1496628264.89,37433,18.13,73808.0,4.29,3.71,3.71,0,*72
1496628266.13,37434,18.13,73810.0,4.29,3.75,3.75,0,*75
1496628267.36,37435,18.13,73808.8,4.29,3.71,3.71,0,*74
1496628268.59,37436,18.13,73810.0,4.29,3.71,3.71,0,*77
1496628269.79,37437,18.13,73810.0,4.27,3.71,3.59,0,*72
1496628270.97,37438,18.13,73806.3,4.29,3.63,3.63,0,*79
1496628272.2,37439,18.13,73806.3,4.29,3.71,3.71,0,*78
1496628273.38,37440,18.13,73806.8,4.29,3.63,3.63,0,*76
1496628274.55,37441,18.13,73810.0,4.29,3.59,3.59,0,*77
1496628275.73,37442,18.13,73810.0,4.29,3.59,3.59,0,*74
1496628276.9,37443,18.13,73806.8,4.29,3.63,3.63,0,*75
1496628278.08,37444,18.13,73804.5,4.29,3.63,3.63,0,*72
1496628279.29,37445,18.13,73808.0,4.29,3.71,3.63,0,*70
1496628280.46,37446,18.13,73808.0,4.29,3.63,3.63,0,*70
1496628281.64,37447,18.13,73806.8,4.29,3.59,3.59,0,*71
1496628282.82,37448,18.13,73808.5,4.29,3.59,3.59,0,*7E
1496628283.98,37449,18.13,73808.3,4.27,3.55,3.55,0,*71
1496628285.16,37450,18.13,73808.8,4.29,3.63,3.59,0,*7E
1496628286.33,37451,18.13,73808.3,4.29,3.59,3.59,0,*76
1496628287.51,37452,18.13,73808.0,4.29,3.59,3.59,0,*75
1496628288.74,37453,18.13,73808.5,4.29,3.49,3.45,0,*78
1496628289.97,37454,18.13,73806.5,4.27,3.45,3.41,0,*79
1496628291.16,37455,18.13,73806.8,4.27,3.55,3.49,0,*71
1496628292.39,37456,18.13,73804.5,4.29,3.49,3.49,0,*71
1496628293.65,37457,18.13,73810.3,4.31,3.41,3.49,0,*71
1496628294.88,37458,18.13,73806.0,4.27,3.41,3.41,0,*71
1496628296.11,37459,18.13,73806.3,4.27,3.45,3.41,0,*74
1496628297.28,37460,18.13,73806.5,4.29,3.55,3.55,0,*74
1496628298.5,37461,18.13,73804.0,4.27,3.45,3.53,0,*7C
1496628299.73,37462,18.13,73804.8,4.27,3.45,3.45,0,*78
1496628300.95,37463,18.13,73804.3,4.29,3.49,3.49,0,*77
1496628302.18,37464,18.13,73806.0,4.27,3.53,3.45,0,*79
1496628303.39,37465,18.13,73802.5,4.27,3.53,3.53,0,*7F
1496628304.6,37466,18.13,73804.8,4.27,3.53,3.53,0,*7C
1496628305.79,37467,18.13,73804.0,4.27,3.53,3.55,0,*7B
1496628306.97,37468,18.13,73806.5,4.29,3.55,3.59,0,*70
1496628308.15,37469,18.13,73802.5,4.27,3.53,3.55,0,*75
1496628309.37,37470,18.13,73806.0,4.27,3.45,3.53,0,*7C
1496628310.59,37471,18.13,73800.5,4.27,3.53,3.45,0,*7D
1496628311.79,37472,18.13,73804.5,4.29,3.53,3.55,0,*71
1496628313.0,37473,18.13,73806.8,4.27,3.53,3.53,0,*78
1496628314.19,37474,18.13,73802.8,4.27,3.53,3.55,0,*79
1496628315.42,37475,18.13,73802.8,4.27,3.45,3.45,0,*7E
1496628316.62,37476,18.13,73802.8,4.29,3.49,3.55,0,*7E
1496628317.84,37477,18.13,73804.0,4.27,3.53,3.45,0,*7B
1496628319.07,37478,18.13,73800.8,4.27,3.45,3.41,0,*77
1496628320.29,37479,18.13,73802.0,4.27,3.45,3.45,0,*72
1496628321.51,37480,18.13,73800.8,4.27,3.45,3.53,0,*73
1496628322.72,37481,18.13,73802.0,4.27,3.53,3.53,0,*75
1496628323.94,37482,18.13,73800.3,4.27,3.53,3.53,0,*76
1496628325.1,37483,18.13,73802.3,4.27,3.59,3.55,0,*7B
1496628326.27,37484,18.13,73798.3,4.27,3.55,3.55,0,*70
1496628327.46,37485,18.13,73800.8,4.27,3.53,3.55,0,*77
1496628328.65,37486,18.13,73806.0,4.25,3.55,3.55,0,*70
1496628329.84,37487,18.13,73804.0,4.25,3.55,3.55,0,*71
1496628331.03,37488,18.13,73806.8,4.25,3.59,3.55,0,*72
1496628332.22,37489,18.13,73802.5,4.25,3.55,3.59,0,*73
1496628333.41,37490,18.13,73804.0,4.25,3.55,3.59,0,*7B
1496628334.63,37491,18.13,73802.8,4.23,3.53,3.53,0,*70
1496628335.85,37492,18.13,73800.3,4.25,3.55,3.53,0,*73
1496628337.03,37493,18.13,73802.5,4.27,3.55,3.53,0,*70
1496628338.25,37494,18.13,73800.8,4.25,3.55,3.53,0,*75
1496628339.44,37495,18.13,73806.5,4.25,3.55,3.55,0,*72
1496628340.63,37496,18.13,73804.3,4.25,3.55,3.55,0,*71
1496628341.82,37497,18.13,73806.5,4.25,3.59,3.55,0,*7C
1496628343.01,37498,18.13,73806.8,4.27,3.55,3.67,0,*7C
1496628344.18,37499,18.13,73806.3,4.27,3.55,3.55,0,*7C
1496628345.34,37500,18.13,73804.5,4.27,3.55,3.55,0,*7D
1496628346.53,37501,18.13,73804.5,4.25,3.59,3.59,0,*7E
1496628347.73,37502,18.13,73800.8,4.25,3.59,3.59,0,*7D
1496628348.9,37503,18.13,73802.3,4.27,3.59,3.59,0,*7E
1496628350.09,37504,18.13,73800.8,4.27,3.55,3.67,0,*78
1496628351.29,37505,18.13,73804.8,4.27,3.67,3.59,0,*75
1496628352.45,37506,18.13,73806.8,4.27,3.55,3.59,0,*77
1496628353.62,37507,18.13,73806.8,4.27,3.55,3.59,0,*76
1496628354.79,37508,18.13,73806.0,4.27,3.59,3.59,0,*75
1496628355.98,37509,18.13,73804.0,4.27,3.59,3.67,0,*79
1496628357.15,37510,18.13,73804.0,4.27,3.59,3.59,0,*7C
1496628358.35,37511,18.13,73806.8,4.29,3.71,3.63,0,*70
1496628359.52,37512,18.13,73804.5,4.27,3.59,3.59,0,*7E
1496628360.75,37513,18.13,73808.5,4.27,3.67,3.67,0,*7F
1496628361.95,37514,18.13,73810.3,4.27,3.67,3.59,0,*75
1496628363.18,37515,18.13,73806.3,4.29,3.71,3.71,0,*77
1496628364.34,37516,18.13,73806.8,4.27,3.55,3.55,0,*7A
1496628365.51,37517,18.13,73810.5,4.27,3.59,3.59,0,*7B
1496628366.69,37518,18.13,73808.0,4.29,3.63,3.63,0,*7A
1496628367.92,37519,18.13,73808.5,4.29,3.71,3.71,0,*7B
1496628369.15,37520,18.13,73810.5,4.27,3.67,3.67,0,*7F
1496628370.38,37521,18.13,73808.3,4.29,3.71,3.71,0,*70
1496628371.55,37522,18.13,73804.8,4.27,3.59,3.59,0,*7D
1496628372.71,37523,18.13,73806.0,4.27,3.55,3.55,0,*7C
1496628373.87,37524,18.13,73808.5,4.27,3.55,3.55,0,*7B
1496628375.04,37525,18.13,73806.5,4.27,3.55,3.55,0,*7A
1496628376.2,37526,18.13,73806.5,4.27,3.55,3.55,0,*79
1496628377.37,37527,18.13,73804.8,4.27,3.59,3.59,0,*78
1496628378.54,37528,18.13,73804.5,4.29,3.55,3.55,0,*79
1496628379.72,37529,18.13,73804.8,4.29,3.59,3.59,0,*78
1496628380.88,37530,18.13,73804.3,4.27,3.55,3.55,0,*7E
1496628382.05,37531,18.13,73804.0,4.27,3.59,3.59,0,*7F
1496628383.21,37532,18.13,73806.8,4.27,3.55,3.55,0,*7C
1496628384.38,37533,18.06,73802.8,4.27,3.59,3.59,0,*7D
1496628385.59,37534,18.13,73804.8,4.29,3.63,3.71,0,*77
1496628386.76,37535,18.13,73804.5,4.27,3.59,3.59,0,*7B
1496628387.93,37536,18.13,73804.3,4.29,3.59,3.63,0,*7F
1496628389.11,37537,18.13,73806.8,4.29,3.59,3.63,0,*7E
1496628390.33,37538,18.13,73806.0,4.27,3.71,3.67,0,*71
1496628391.54,37539,18.13,73806.3,4.29,3.71,3.63,0,*7A
1496628392.76,37540,18.13,73802.5,4.27,3.71,3.67,0,*7E
1496628393.96,37541,18.13,73806.5,4.29,3.63,3.75,0,*71
1496628395.16,37542,18.13,73802.8,4.27,3.67,3.55,0,*7A
1496628396.37,37543,18.13,73806.5,4.29,3.63,3.71,0,*77
1496628397.58,37544,18.13,73804.5,4.29,3.67,3.63,0,*77
1496628398.74,37545,18.13,73804.5,4.27,3.63,3.59,0,*75
1496628399.92,37546,18.13,73808.3,4.29,3.63,3.63,0,*71
1496628401.1,37547,18.13,73808.0,4.29,3.59,3.63,0,*79
1496628402.26,37548,18.13,73804.0,4.27,3.55,3.55,0,*71
1496628403.44,37549,18.13,73810.8,4.29,3.63,3.59,0,*77
1496628404.6,37550,18.13,73804.5,4.27,3.59,3.55,0,*74
1496628405.77,37551,18.13,73810.0,4.27,3.55,3.55,0,*79
1496628406.94,37552,18.13,73808.5,4.29,3.59,3.63,0,*7D
1496628408.11,37553,18.13,73808.0,4.27,3.55,3.63,0,*7E
1496628409.28,37554,18.13,73808.3,4.29,3.59,3.59,0,*72
1496628410.46,37555,18.13,73808.8,4.29,3.55,3.55,0,*73
1496628411.62,37556,18.13,73810.3,4.27,3.55,3.55,0,*7E
1496628412.8,37557,18.13,73806.5,4.29,3.59,3.59,0,*71
1496628413.97,37558,18.13,73808.8,4.29,3.59,3.59,0,*7E
1496628415.15,37559,18.13,73812.5,4.29,3.59,3.59,0,*7F
1496628416.31,37560,18.13,73810.8,4.27,3.55,3.59,0,*77
1496628417.49,37561,18.13,73808.0,4.29,3.59,3.59,0,*74
1496628418.67,37562,18.13,73808.5,4.29,3.59,3.63,0,*7E
1496628419.85,37563,18.13,73810.0,4.29,3.59,3.59,0,*76
1496628421.02,37564,18.13,73808.5,4.29,3.59,3.59,0,*71
1496628422.2,37565,18.13,73810.5,4.29,3.59,3.59,0,*70
1496628423.36,37566,18.13,73810.3,4.27,3.55,3.55,0,*7D
1496628424.54,37567,18.13,73808.8,4.29,3.59,3.59,0,*72
1496628425.7,37568,18.13,73810.3,4.27,3.55,3.55,0,*73
1496628426.87,37569,18.13,73806.3,4.27,3.55,3.55,0,*72
1496628428.03,37570,18.13,73804.5,4.27,3.55,3.55,0,*7A
1496628429.2,37571,18.13,73806.8,4.27,3.59,3.55,0,*77
1496628430.36,37572,18.13,73806.3,4.27,3.55,3.55,0,*78
1496628431.54,37573,18.13,73804.8,4.29,3.59,3.55,0,*7B
1496628432.71,37574,18.13,73808.0,4.27,3.63,3.63,0,*7E
1496628433.91,37575,18.13,73810.3,4.29,3.63,3.71,0,*72
1496628435.11,37576,18.13,73808.3,4.27,3.71,3.63,0,*7F
1496628436.3,37577,18.13,73808.8,4.27,3.63,3.71,0,*7E
1496628437.47,37578,18.13,73808.8,4.27,3.63,3.63,0,*72
1496628438.64,37579,18.13,73806.3,4.29,3.63,3.63,0,*7D
1496628439.81,37580,18.13,73806.3,4.27,3.55,3.59,0,*79
1496628440.97,37581,18.13,73804.8,4.27,3.55,3.55,0,*74
1496628442.14,37582,18.13,73808.3,4.27,3.55,3.55,0,*77
1496628443.31,37583,18.13,73810.5,4.29,3.59,3.59,0,*78
1496628444.49,37584,18.13,73808.8,4.29,3.59,3.63,0,*76
1496628445.67,37585,18.13,73810.8,4.29,3.59,3.59,0,*7E
1496628446.84,37586,18.13,73806.0,4.29,3.59,3.59,0,*7D
1496628448.03,37587,18.13,73806.0,4.27,3.53,3.55,0,*74
1496628449.22,37588,18.13,73808.8,4.27,3.53,3.55,0,*7B
1496628450.41,37589,18.13,73806.5,4.27,3.53,3.55,0,*7A
1496628451.61,37590,18.13,73810.8,4.29,3.49,3.55,0,*77
1496628452.78,37591,18.13,73812.0,4.29,3.55,3.55,0,*7B
1496628454.0,37592,18.13,73810.5,4.27,3.53,3.53,0,*76
1496628455.22,37593,18.13,73810.8,4.27,3.45,3.45,0,*77
1496628456.44,37594,18.13,73810.3,4.27,3.53,3.45,0,*77
1496628457.67,37595,18.13,73804.0,4.27,3.45,3.45,0,*71
1496628458.89,37596,18.13,73806.8,4.27,3.45,3.45,0,*72
1496628460.12,37597,18.13,73808.5,4.27,3.45,3.41,0,*77
1496628461.35,37598,18.13,73810.5,4.27,3.41,3.41,0,*7C
1496628462.58,37599,18.13,73804.0,4.27,3.45,3.45,0,*7D
1496628463.83,37600,18.13,73804.0,4.25,3.45,3.45,0,*7C
1496628465.08,37601,18.13,73808.8,4.25,3.45,3.45,0,*7D
1496628466.32,37602,18.13,73804.0,4.25,3.45,3.53,0,*79
1496628467.57,37603,18.13,73808.3,4.25,3.45,3.45,0,*7F
1496628468.82,37604,18.13,73810.3,4.25,3.53,3.53,0,*78
1496628470.06,37605,18.13,73806.8,4.25,3.53,3.53,0,*79
1496628471.28,37606,18.13,73808.3,4.23,3.49,3.49,0,*7C
1496628472.49,37607,18.13,73808.3,4.27,3.53,3.53,0,*79
1496628473.73,37608,18.13,73808.3,4.25,3.53,3.53,0,*74
1496628474.97,37609,18.13,73808.8,4.25,3.53,3.53,0,*75
1496628476.21,37610,18.13,73812.0,4.25,3.53,3.53,0,*7D
1496628477.44,37611,18.13,73814.3,4.23,3.49,3.49,0,*7A
1496628478.68,37612,18.13,73810.8,4.25,3.53,3.53,0,*7F
1496628479.9,37613,18.13,73810.8,4.23,3.49,3.49,0,*78
1496628481.12,37614,18.13,73814.8,4.25,3.53,3.55,0,*7F
1496628482.31,37615,18.13,73808.3,4.25,3.55,3.55,0,*78
1496628483.5,37616,18.13,73810.8,4.25,3.59,3.55,0,*77
1496628484.69,37617,18.13,73812.8,4.25,3.55,3.55,0,*7A
1496628485.88,37618,18.13,73810.8,4.25,3.55,3.55,0,*75
1496628487.05,37619,18.13,73810.5,4.27,3.55,3.55,0,*76
1496628488.21,37620,18.13,73808.8,4.27,3.59,3.55,0,*70
1496628489.4,37621,18.13,73810.3,4.25,3.55,3.55,0,*7F
1496628490.59,37622,18.13,73810.5,4.25,3.55,3.55,0,*7C
1496628491.79,37623,18.13,73808.5,4.25,3.55,3.59,0,*71
1496628492.98,37624,18.13,73810.5,4.25,3.55,3.59,0,*76
1496628494.17,37625,18.13,73810.3,4.25,3.55,3.59,0,*77
1496628495.36,37626,18.13,73810.5,4.25,3.59,3.59,0,*78
1496628496.56,37627,18.13,73808.3,4.25,3.59,3.59,0,*79
1496628497.73,37628,18.13,73808.3,4.23,3.55,3.59,0,*7C
1496628498.92,37629,18.13,73810.8,4.25,3.59,3.59,0,*77
1496628500.09,37630,18.13,73810.3,4.23,3.55,3.55,0,*79
1496628501.28,37631,18.13,73810.3,4.25,3.59,3.59,0,*7E
1496628502.45,37632,18.13,73808.8,4.23,3.55,3.55,0,*7B
1496628503.7,37633,18.13,73812.5,4.25,3.67,3.71,0,*7B
1496628504.96,37634,18.13,73814.0,4.25,3.67,3.67,0,*7B
1496628506.21,37635,18.13,73810.3,4.25,3.67,3.67,0,*7A
1496628507.4,37636,18.13,73808.5,4.25,3.55,3.59,0,*75
1496628508.59,37637,18.13,73812.5,4.25,3.59,3.59,0,*78
1496628509.79,37638,18.13,73810.5,4.25,3.59,3.55,0,*7B
1496628510.96,37639,18.13,73810.5,4.27,3.59,3.59,0,*74
1496628512.12,37640,18.13,73810.3,4.27,3.55,3.59,0,*76
1496628513.29,37641,18.13,73808.5,4.27,3.59,3.55,0,*77
1496628514.45,37642,18.13,73810.0,4.27,3.55,3.55,0,*78
1496628515.61,37643,18.13,73814.8,4.27,3.55,3.55,0,*79
1496628516.78,37644,18.13,73810.5,4.27,3.55,3.55,0,*7E
1496628517.97,37645,18.13,73808.3,4.25,3.59,3.59,0,*7D
1496628519.16,37646,18.13,73810.8,4.25,3.55,3.55,0,*7E
1496628520.36,37647,18.13,73808.8,4.25,3.55,3.59,0,*73
1496628521.55,37648,18.13,73812.0,4.25,3.55,3.59,0,*7C
1496628522.74,37649,18.06,73808.3,4.25,3.59,3.59,0,*71
1496628523.96,37650,18.13,73810.8,4.25,3.59,3.67,0,*74
1496628525.21,37651,18.13,73810.5,4.25,3.67,3.67,0,*78
1496628526.47,37652,18.13,73808.5,4.25,3.67,3.67,0,*7B